Location: Gorlice
(49.6633°N, 21.1693°E)
Time: 01:44:04
(UTC+01:00)

ISS - Pass Details

Date: 01 February 2019
Orbit: 403 x 411 km, 51.6° (Epoch: 22 February)

Event Time Altitude Azimuth Distance (km) Brightness Sun altitude
Rises 18:55:50 0° 286° (WNW) 2,339 1.3 -23.7°
Reaches altitude 10° 18:57:56 10° 287° (WNW) 1,479 0.0 -24.0°
Enters shadow 18:59:59 35° 292° (WNW) 688 -2.2 -24.3°
